| time (UTC) | temp F | wind direction | speed knots | gust knots | rain 1hr in | rain 24hr in | rain mn in | humidity % | barometer mb |
| 20260505223944 | 63 | 270 | 0.0 | 0.0 | 0.00 | 0.00 | 0.00 | 58 | 1000.2 |
| 20260505223444 | 63 | 90 | 0.0 | 0.0 | 0.00 | 0.00 | 0.00 | 57 | 999.8 |
| 20260505222944 | 63 | 270 | 0.0 | 0.0 | 0.00 | 0.00 | 0.00 | 57 | 1001.8 |
| 20260505222444 | 0 | 292 | 0.0 | 0.0 | 0.00 | 0.00 | 0.00 | 1001.3 | |
| 20260505221944 | 0 | 292 | 0.0 | 0.0 | 0.00 | 0.00 | 0.00 | 997.3 | |
| 20260505221444 | 64 | 292 | 0.0 | 0.0 | 0.00 | 0.00 | 0.00 | 57 | 1000.5 |
| 20260505220944 | 64 | 292 | 0.0 | 0.0 | 0.00 | 0.00 | 0.00 | 57 | 1001.8 |
| 20260505220444 | 64 | 292 | 0.0 | 0.0 | 0.00 | 0.00 | 0.00 | 57 | 1001.8 |
| 20260505215944 | 64 | 0 | 0.0 | 0.0 | 0.00 | 0.00 | 0.00 | 56 | 1001.9 |
| 20260505215444 | 64 | 0 | 0.0 | 0.0 | 0.00 | 0.00 | 0.00 | 56 | 1001.8 |
| 20260505214944 | 64 | 0 | 0.0 | 0.0 | 0.00 | 0.00 | 0.00 | 56 | 1001.2 |
| 20260505214444 | 64 | 0 | 0.0 | 0.0 | 0.00 | 0.00 | 0.00 | 56 | 1000.3 |
| 20260505213944 | 0 | 0 | 0.0 | 0.0 | 0.00 | 0.00 | 0.00 | 1001.5 | |
| 20260505213444 | 0 | 0 | 0.0 | 0.0 | 0.00 | 0.00 | 0.00 | 1001.2 | |
| 20260505212944 | 65 | 0 | 0.0 | 0.0 | 0.00 | 0.00 | 0.00 | 54 | 996.2 |
| 20260505212444 | 65 | 0 | 0.0 | 0.0 | 0.00 | 0.00 | 0.00 | 54 | 999.9 |
| 20260505211944 | 65 | 0 | 0.0 | 0.0 | 0.00 | 0.00 | 0.00 | 54 | 999.9 |
| 20260505211444 | 65 | 270 | 0.0 | 0.0 | 0.00 | 0.00 | 0.00 | 54 | 1000.4 |
| 20260505210944 | 65 | 270 | 0.0 | 0.0 | 0.00 | 0.00 | 0.00 | 54 | 1000.5 |
| 20260505210444 | 65 | 90 | 0.0 | 0.0 | 0.00 | 0.00 | 0.00 | 54 | 1000.1 |
| 20260505205944 | 66 | 22 | 0.0 | 0.0 | 0.00 | 0.00 | 0.00 | 54 | 1000.3 |
| 20260505205444 | 66 | 202 | 0.0 | 0.0 | 0.00 | 0.00 | 0.00 | 54 | 1000.4 |
| 20260505204944 | 66 | 22 | 0.0 | 0.0 | 0.00 | 0.00 | 0.00 | 53 | 999.7 |
| 20260505204444 | 66 | 90 | 0.0 | 3.5 | 0.00 | 0.00 | 0.00 | 53 | 999.7 |
| 20260505203944 | 66 | 22 | 0.0 | 0.0 | 0.00 | 0.00 | 0.00 | 53 | 999.8 |
| 20260505203444 | 66 | 270 | 0.0 | 0.0 | 0.00 | 0.00 | 0.00 | 53 | 1000.0 |
| 20260505202944 | 66 | 90 | 0.0 | 0.0 | 0.00 | 0.00 | 0.00 | 53 | 1000.1 |
| 20260505202444 | 66 | 22 | 0.0 | 0.0 | 0.00 | 0.00 | 0.00 | 53 | 999.9 |
| 20260505201944 | 66 | 112 | 0.0 | 0.0 | 0.00 | 0.00 | 0.00 | 52 | 1000.1 |
| 20260505201444 | 66 | 270 | 0.0 | 0.0 | 0.00 | 0.00 | 0.00 | 52 | 1000.0 |
| 20260505200944 | 66 | 270 | 0.0 | 0.9 | 0.00 | 0.00 | 0.00 | 52 | 1000.6 |
| 20260505200444 | 66 | 112 | 0.0 | 0.0 | 0.00 | 0.00 | 0.00 | 52 | 1000.0 |
| 20260505195944 | 66 | 112 | 0.0 | 0.0 | 0.00 | 0.00 | 0.00 | 52 | 1000.3 |
| 20260505195444 | 67 | 90 | 0.0 | 3.5 | 0.00 | 0.00 | 0.00 | 52 | 1000.1 |
| 20260505194944 | 67 | 180 | 0.0 | 0.0 | 0.00 | 0.00 | 0.00 | 52 | 999.7 |
| 20260505194444 | 67 | 0 | 0.0 | 0.0 | 0.00 | 0.00 | 0.00 | 51 | 1000.0 |
| 20260505193944 | 67 | 90 | 0.0 | 0.0 | 0.00 | 0.00 | 0.00 | 51 | 999.3 |
| 20260505193444 | 67 | 112 | 0.0 | 0.0 | 0.00 | 0.00 | 0.00 | 51 | 1000.0 |
| 20260505192944 | 67 | 22 | 0.0 | 0.0 | 0.00 | 0.00 | 0.00 | 51 | 1000.3 |
| 20260505192444 | 67 | 90 | 0.0 | 0.0 | 0.00 | 0.00 | 0.00 | 50 | 999.8 |
| 20260505191944 | 67 | 22 | 0.0 | 0.0 | 0.00 | 0.00 | 0.00 | 50 | 1000.6 |
| 20260505191444 | 68 | 22 | 0.0 | 0.0 | 0.00 | 0.00 | 0.00 | 50 | 999.8 |
| 20260505190944 | 68 | 112 | 0.0 | 0.0 | 0.00 | 0.00 | 0.00 | 49 | 1000.0 |
| 20260505190444 | 68 | 22 | 0.0 | 0.0 | 0.00 | 0.00 | 0.00 | 49 | 1000.1 |
| 20260505185944 | 68 | 202 | 0.0 | 1.7 | 0.00 | 0.00 | 0.00 | 49 | 1000.5 |
| 20260505185444 | 68 | 202 | 0.0 | 0.0 | 0.00 | 0.00 | 0.00 | 49 | 1000.3 |
| 20260505184944 | 68 | 180 | 0.0 | 0.0 | 0.00 | 0.00 | 0.00 | 48 | 1000.4 |
| 20260505184444 | 68 | 292 | 0.0 | 0.0 | 0.00 | 0.00 | 0.00 | 48 | 1000.2 |
| 20260505183944 | 69 | 0 | 0.0 | 0.0 | 0.00 | 0.00 | 0.00 | 47 | 1000.3 |
| 20260505183444 | 69 | 22 | 0.0 | 0.0 | 0.00 | 0.00 | 0.00 | 47 | 1000.1 |
| 20260505182944 | 69 | 22 | 0.0 | 0.0 | 0.00 | 0.00 | 0.00 | 46 | 999.7 |
| 20260505182444 | 69 | 22 | 0.0 | 0.0 | 0.00 | 0.00 | 0.00 | 46 | 1000.3 |
| 20260505181944 | 69 | 22 | 0.0 | 0.0 | 0.00 | 0.00 | 0.00 | 45 | 1000.0 |
| 20260505181444 | 69 | 22 | 0.0 | 0.0 | 0.00 | 0.00 | 0.00 | 45 | 1000.1 |
| 20260505180944 | 70 | 22 | 0.0 | 0.0 | 0.00 | 0.00 | 0.00 | 45 | 999.6 |
| 20260505180444 | 70 | 90 | 0.0 | 0.9 | 0.00 | 0.00 | 0.00 | 44 | 1000.0 |
| 20260505175944 | 70 | 22 | 0.0 | 1.7 | 0.00 | 0.00 | 0.00 | 44 | 999.9 |
| 20260505175444 | 70 | 22 | 0.0 | 0.0 | 0.00 | 0.00 | 0.00 | 44 | 999.9 |
| 20260505174944 | 70 | 90 | 0.0 | 0.9 | 0.00 | 0.00 | 0.00 | 43 | 1000.1 |
| 20260505174444 | 70 | 202 | 0.0 | 0.0 | 0.00 | 0.00 | 0.00 | 43 | 1000.1 |
| 20260505173944 | 71 | 0 | 0.0 | 0.0 | 0.00 | 0.00 | 0.00 | 43 | 1000.2 |
| 20260505173444 | 71 | 180 | 0.0 | 0.0 | 0.00 | 0.00 | 0.00 | 43 | 1000.5 |
| 20260505172944 | 71 | 22 | 0.0 | 1.7 | 0.00 | 0.00 | 0.00 | 43 | 1000.5 |
| 20260505172445 | 71 | 112 | 0.0 | 3.5 | 0.00 | 0.00 | 0.00 | 43 | 1000.4 |
| 20260505171945 | 71 | 270 | 0.0 | 0.0 | 0.00 | 0.00 | 0.00 | 43 | 1001.0 |
| 20260505171445 | 0 | 202 | 0.0 | 0.0 | 0.00 | 0.00 | 0.00 | 1001.5 | |
| 20260505170945 | 0 | 202 | 0.0 | 0.0 | 0.00 | 0.00 | 0.00 | 1001.1 | |
| 20260505170445 | 73 | 202 | 0.0 | 0.0 | 0.00 | 0.00 | 0.00 | 42 | 998.2 |
| 20260505165945 | 73 | 202 | 0.0 | 0.0 | 0.00 | 0.00 | 0.00 | 42 | 1000.3 |
| 20260505165445 | 73 | 202 | 0.0 | 0.0 | 0.00 | 0.00 | 0.00 | 42 | 1000.4 |
| 20260505164945 | 73 | 22 | 0.0 | 0.0 | 0.00 | 0.00 | 0.00 | 42 | 1000.2 |
| 20260505164445 | 73 | 22 | 0.0 | 1.7 | 0.00 | 0.00 | 0.00 | 42 | 999.8 |
| 20260505163945 | 73 | 0 | 0.0 | 0.0 | 0.00 | 0.00 | 0.00 | 41 | 1000.9 |
| 20260505163445 | 75 | 112 | 0.0 | 0.0 | 0.00 | 0.00 | 0.00 | 41 | 1001.7 |
| 20260505162945 | 75 | 202 | 0.0 | 0.0 | 0.00 | 0.00 | 0.00 | 40 | 1001.6 |
| 20260505162445 | 75 | 202 | 0.0 | 0.0 | 0.00 | 0.00 | 0.00 | 40 | 1001.6 |
| 20260505161945 | 75 | 202 | 0.0 | 0.0 | 0.00 | 0.00 | 0.00 | 40 | 1001.1 |
| 20260505161445 | 75 | 202 | 0.0 | 4.3 | 0.00 | 0.00 | 0.00 | 40 | 1000.1 |
| 20260505160945 | 75 | 0 | 0.0 | 1.7 | 0.00 | 0.00 | 0.00 | 40 | 1000.7 |
| 20260505160445 | 75 | 22 | 0.0 | 0.0 | 0.00 | 0.00 | 0.00 | 40 | 999.4 |
| 20260505152945 | 78 | 0 | 0.0 | 5.2 | 0.00 | 0.00 | 0.00 | 37 | 1000.3 |
| 20260505152445 | 78 | 270 | 2.6 | 6.1 | 0.00 | 0.00 | 0.00 | 37 | 1000.3 |
| 20260505151945 | 78 | 202 | 0.0 | 5.2 | 0.00 | 0.00 | 0.00 | 37 | 1001.0 |
| 20260505151445 | 0 | 270 | 0.0 | 0.0 | 0.00 | 0.00 | 0.00 | 1001.7 | |
| 20260505150945 | 0 | 270 | 0.0 | 0.0 | 0.00 | 0.00 | 0.00 | 1001.4 | |
| 20260505150445 | 79 | 270 | 4.3 | 4.3 | 0.00 | 0.00 | 0.00 | 37 | 1000.0 |
| 20260505140445 | 79 | 247 | 0.0 | 4.3 | 0.00 | 0.00 | 0.00 | 36 | 1000.6 |
| 20260505124945 | 78 | 22 | 0.0 | 0.0 | 0.00 | 0.00 | 0.00 | 38 | 1001.8 |
| 20260505124445 | 78 | 0 | 0.0 | 0.9 | 0.00 | 0.00 | 0.00 | 38 | 1001.4 |
| 20260505123945 | 78 | 292 | 0.0 | 0.0 | 0.00 | 0.00 | 0.00 | 38 | 1001.4 |
| 20260505123445 | 78 | 22 | 0.0 | 3.5 | 0.00 | 0.00 | 0.00 | 38 | 1001.6 |
| 20260505122945 | 78 | 90 | 0.0 | 0.0 | 0.00 | 0.00 | 0.00 | 38 | 1001.7 |
| 20260505122445 | 77 | 202 | 0.0 | 0.0 | 0.00 | 0.00 | 0.00 | 37 | 1001.7 |
| 20260505121945 | 77 | 202 | 1.7 | 4.3 | 0.00 | 0.00 | 0.00 | 37 | 1001.9 |
| 20260505121445 | 77 | 202 | 0.0 | 4.3 | 0.00 | 0.00 | 0.00 | 37 | 1002.1 |
| 20260505120945 | 77 | 22 | 0.0 | 0.0 | 0.00 | 0.00 | 0.00 | 37 | 1002.0 |
| 20260505120445 | 77 | 180 | 0.0 | 0.0 | 0.00 | 0.00 | 0.00 | 36 | 1002.0 |
| 20260505115945 | 77 | 22 | 0.0 | 4.3 | 0.00 | 0.00 | 0.00 | 37 | 1002.1 |
| 20260505115445 | 77 | 90 | 0.0 | 0.9 | 0.00 | 0.00 | 0.00 | 38 | 1002.1 |
| 20260505114945 | 77 | 22 | 0.0 | 0.0 | 0.00 | 0.00 | 0.00 | 38 | 1001.7 |
| 20260505114445 | 77 | 22 | 0.0 | 0.0 | 0.00 | 0.00 | 0.00 | 37 | 1002.2 |
| 20260505113945 | 77 | 112 | 0.0 | 1.7 | 0.00 | 0.00 | 0.00 | 37 | 1002.4 |
| 20260505113445 | 77 | 22 | 0.0 | 0.0 | 0.00 | 0.00 | 0.00 | 37 | 1002.5 |
| 20260505112945 | 77 | 112 | 0.0 | 3.5 | 0.00 | 0.00 | 0.00 | 36 | 1002.6 |
| 20260505112445 | 77 | 22 | 0.0 | 1.7 | 0.00 | 0.00 | 0.00 | 36 | 1002.6 |
| 20260505111945 | 77 | 22 | 0.0 | 1.7 | 0.00 | 0.00 | 0.00 | 38 | 1002.5 |
| 20260505111445 | 77 | 202 | 0.0 | 0.0 | 0.00 | 0.00 | 0.00 | 39 | 1002.6 |
| 20260505110945 | 77 | 202 | 0.0 | 0.9 | 0.00 | 0.00 | 0.00 | 39 | 1002.8 |
| 20260505110445 | 76 | 22 | 0.0 | 0.0 | 0.00 | 0.00 | 0.00 | 41 | 1002.6 |
| 20260505101945 | 75 | 22 | 0.0 | 0.0 | 0.00 | 0.00 | 0.00 | 40 | 1002.9 |
| 20260505101445 | 75 | 202 | 0.0 | 0.0 | 0.00 | 0.00 | 0.00 | 40 | 1003.3 |
| 20260505100945 | 74 | 22 | 0.0 | 0.0 | 0.00 | 0.00 | 0.00 | 41 | 1003.1 |
| 20260505100445 | 74 | 90 | 0.0 | 0.0 | 0.00 | 0.00 | 0.00 | 41 | 1002.7 |
| 20260505095945 | 74 | 90 | 0.0 | 3.5 | 0.00 | 0.00 | 0.00 | 41 | 1003.1 |
| 20260505095445 | 74 | 112 | 0.0 | 0.0 | 0.00 | 0.00 | 0.00 | 42 | 1003.1 |
| 20260505094945 | 73 | 180 | 0.0 | 0.0 | 0.00 | 0.00 | 0.00 | 43 | 1003.3 |
| 20260505094446 | 73 | 270 | 0.0 | 2.6 | 0.00 | 0.00 | 0.00 | 44 | 1002.9 |
| 20260505093945 | 72 | 22 | 0.0 | 0.0 | 0.00 | 0.00 | 0.00 | 45 | 1003.5 |
| 20260505093445 | 72 | 90 | 0.0 | 0.0 | 0.00 | 0.00 | 0.00 | 45 | 1003.1 |
| 20260505092945 | 72 | 112 | 0.0 | 0.0 | 0.00 | 0.00 | 0.00 | 44 | 1003.4 |
| 20260505092445 | 72 | 180 | 0.0 | 0.0 | 0.00 | 0.00 | 0.00 | 44 | 1003.6 |
| 20260505091945 | 72 | 22 | 0.0 | 0.0 | 0.00 | 0.00 | 0.00 | 44 | 1003.6 |
| 20260505091445 | 72 | 112 | 0.0 | 0.0 | 0.00 | 0.00 | 0.00 | 44 | 1003.4 |
| 20260505090945 | 72 | 180 | 0.0 | 0.0 | 0.00 | 0.00 | 0.00 | 43 | 1003.7 |
| 20260505090445 | 72 | 202 | 0.0 | 0.0 | 0.00 | 0.00 | 0.00 | 43 | 1003.8 |
| 20260505085945 | 72 | 202 | 0.0 | 0.0 | 0.00 | 0.00 | 0.00 | 43 | 1003.7 |
| 20260505085445 | 72 | 22 | 0.0 | 0.0 | 0.00 | 0.00 | 0.00 | 43 | 1003.9 |
| 20260505084945 | 72 | 90 | 0.0 | 0.0 | 0.00 | 0.00 | 0.00 | 44 | 1003.7 |
| 20260505084445 | 72 | 90 | 0.0 | 0.0 | 0.00 | 0.00 | 0.00 | 45 | 1003.5 |
| 20260505083945 | 71 | 180 | 0.0 | 0.0 | 0.00 | 0.00 | 0.00 | 45 | 1003.6 |
| 20260505083445 | 71 | 90 | 0.0 | 0.0 | 0.00 | 0.00 | 0.00 | 44 | 1003.6 |
| 20260505082945 | 71 | 22 | 0.0 | 0.0 | 0.00 | 0.00 | 0.00 | 44 | 1003.6 |
| 20260505082445 | 71 | 270 | 0.0 | 0.0 | 0.00 | 0.00 | 0.00 | 44 | 1003.6 |
| 20260505081945 | 71 | 270 | 0.0 | 0.0 | 0.00 | 0.00 | 0.00 | 44 | 1003.7 |
| 20260505081445 | 72 | 90 | 0.0 | 0.0 | 0.00 | 0.00 | 0.00 | 43 | 1003.7 |
| 20260505080945 | 72 | 90 | 0.0 | 0.0 | 0.00 | 0.00 | 0.00 | 43 | 1003.4 |
| 20260505080445 | 72 | 112 | 0.0 | 0.0 | 0.00 | 0.00 | 0.00 | 44 | 1003.6 |
| 20260505075945 | 72 | 90 | 0.0 | 0.0 | 0.00 | 0.00 | 0.00 | 44 | 1003.4 |
| 20260505075446 | 72 | 180 | 0.0 | 0.0 | 0.00 | 0.00 | 0.00 | 44 | 1003.5 |
| 20260505074945 | 71 | 112 | 0.0 | 0.0 | 0.00 | 0.00 | 0.00 | 44 | 1003.7 |
| 20260505074445 | 71 | 22 | 0.0 | 0.0 | 0.00 | 0.00 | 0.00 | 44 | 1003.9 |
| 20260505073945 | 71 | 0 | 0.0 | 0.0 | 0.00 | 0.00 | 0.00 | 45 | 1003.6 |
| 20260505073445 | 70 | 22 | 0.0 | 0.0 | 0.00 | 0.00 | 0.00 | 45 | 1003.8 |
| 20260505072945 | 70 | 0 | 0.0 | 0.0 | 0.00 | 0.00 | 0.00 | 45 | 1003.8 |
| 20260505072445 | 69 | 22 | 0.0 | 0.0 | 0.00 | 0.00 | 0.00 | 46 | 1003.9 |
| 20260505071945 | 69 | 90 | 0.0 | 0.0 | 0.00 | 0.00 | 0.00 | 46 | 1003.6 |
| 20260505071445 | 69 | 0 | 0.0 | 0.0 | 0.00 | 0.00 | 0.00 | 46 | 1003.5 |
| 20260505070945 | 68 | 22 | 0.0 | 0.0 | 0.00 | 0.00 | 0.00 | 47 | 1003.8 |
| 20260505070445 | 68 | 22 | 0.0 | 0.0 | 0.00 | 0.00 | 0.00 | 47 | 1003.4 |
| 20260505065945 | 67 | 22 | 0.0 | 0.0 | 0.00 | 0.00 | 0.00 | 47 | 1004.2 |
| 20260505065445 | 67 | 90 | 0.0 | 0.0 | 0.00 | 0.00 | 0.00 | 48 | 1004.0 |
| 20260505064945 | 66 | 22 | 0.0 | 0.0 | 0.00 | 0.00 | 0.00 | 48 | 1004.0 |
| 20260505064445 | 66 | 22 | 0.0 | 0.0 | 0.00 | 0.00 | 0.00 | 48 | 1004.1 |
| 20260505063945 | 66 | 22 | 0.0 | 0.0 | 0.00 | 0.00 | 0.00 | 49 | 1004.1 |
| 20260505063445 | 66 | 112 | 0.0 | 0.0 | 0.00 | 0.00 | 0.00 | 49 | 1004.5 |
| 20260505062945 | 64 | 90 | 0.0 | 0.0 | 0.00 | 0.00 | 0.00 | 51 | 1005.1 |
| 20260505062445 | 64 | 90 | 0.0 | 0.0 | 0.00 | 0.00 | 0.00 | 51 | 1005.0 |
| 20260505061945 | 64 | 90 | 0.0 | 0.0 | 0.00 | 0.00 | 0.00 | 51 | 1004.8 |
| 20260505061445 | 64 | 90 | 0.0 | 0.0 | 0.00 | 0.00 | 0.00 | 51 | 1003.7 |
| 20260505060945 | 64 | 90 | 0.0 | 0.0 | 0.00 | 0.00 | 0.00 | 51 | 1003.7 |
| 20260505060446 | 64 | 112 | 0.0 | 0.0 | 0.00 | 0.00 | 0.00 | 51 | 1004.2 |
| 20260505055945 | 63 | 112 | 0.0 | 0.0 | 0.00 | 0.00 | 0.00 | 51 | 1003.8 |
| 20260505055445 | 63 | 112 | 0.0 | 0.0 | 0.00 | 0.00 | 0.00 | 52 | 1003.6 |
| 20260505054945 | 62 | 112 | 0.0 | 0.0 | 0.00 | 0.00 | 0.00 | 52 | 1003.4 |
| 20260505054445 | 62 | 112 | 0.0 | 0.0 | 0.00 | 0.00 | 0.00 | 52 | 1003.8 |
| 20260505053946 | 62 | 90 | 0.0 | 0.0 | 0.00 | 0.00 | 0.00 | 51 | 1003.3 |
| 20260505053445 | 62 | 90 | 0.0 | 0.0 | 0.00 | 0.00 | 0.00 | 51 | 1003.8 |
| 20260505052945 | 62 | 180 | 0.0 | 0.0 | 0.00 | 0.00 | 0.00 | 51 | 1003.7 |
| 20260505052446 | 62 | 90 | 0.0 | 0.0 | 0.00 | 0.00 | 0.00 | 51 | 1003.7 |
| 20260505051946 | 62 | 112 | 0.0 | 0.0 | 0.00 | 0.00 | 0.00 | 51 | 1003.5 |
| 20260505051446 | 61 | 90 | 0.0 | 0.0 | 0.00 | 0.00 | 0.00 | 51 | 1003.7 |
| 20260505050946 | 61 | 22 | 0.0 | 0.0 | 0.00 | 0.00 | 0.00 | 50 | 1003.5 |
| 20260505050446 | 61 | 22 | 0.0 | 0.0 | 0.00 | 0.00 | 0.00 | 50 | 1003.6 |
| 20260505041446 | 61 | 202 | 0.0 | 0.0 | 0.00 | 0.00 | 0.00 | 48 | 1002.9 |
| 20260505040946 | 60 | 202 | 0.0 | 0.0 | 0.00 | 0.00 | 0.00 | 48 | 1003.6 |
| 20260505040446 | 60 | 202 | 0.0 | 0.0 | 0.00 | 0.00 | 0.00 | 48 | 1003.4 |
| 20260505035946 | 60 | 202 | 0.0 | 0.0 | 0.00 | 0.00 | 0.00 | 47 | 1003.4 |
| 20260505035446 | 60 | 202 | 0.0 | 0.0 | 0.00 | 0.00 | 0.00 | 47 | 1003.5 |
| 20260505034946 | 61 | 202 | 0.0 | 0.0 | 0.00 | 0.00 | 0.00 | 47 | 1003.3 |
| 20260505034446 | 61 | 202 | 0.0 | 0.0 | 0.00 | 0.00 | 0.00 | 47 | 1003.6 |
| 20260505033946 | 61 | 202 | 0.0 | 0.0 | 0.00 | 0.00 | 0.00 | 47 | 1003.7 |
| 20260505033446 | 61 | 292 | 0.0 | 0.0 | 0.00 | 0.00 | 0.00 | 46 | 1003.5 |
| 20260505032946 | 61 | 0 | 0.0 | 0.0 | 0.00 | 0.00 | 0.00 | 46 | 1003.6 |
| 20260505032446 | 61 | 90 | 0.0 | 0.0 | 0.00 | 0.00 | 0.00 | 46 | 1003.7 |
| 20260505031946 | 61 | 90 | 0.0 | 0.0 | 0.00 | 0.00 | 0.00 | 46 | 1004.0 |
| 20260505031446 | 61 | 112 | 0.0 | 0.0 | 0.00 | 0.00 | 0.00 | 46 | 1003.4 |
| 20260505030946 | 61 | 112 | 0.0 | 0.0 | 0.00 | 0.00 | 0.00 | 46 | 1003.6 |
| 20260505030446 | 61 | 112 | 0.0 | 0.0 | 0.00 | 0.00 | 0.00 | 46 | 1003.7 |
| 20260505025946 | 61 | 112 | 0.0 | 0.0 | 0.00 | 0.00 | 0.00 | 46 | 1003.7 |
| 20260505025446 | 61 | 180 | 0.0 | 0.0 | 0.00 | 0.00 | 0.00 | 45 | 1003.5 |
| 20260505024946 | 62 | 180 | 0.0 | 0.0 | 0.00 | 0.00 | 0.00 | 45 | 1003.6 |
| 20260505024446 | 62 | 112 | 0.0 | 0.0 | 0.00 | 0.00 | 0.00 | 45 | 1003.9 |
| 20260505023946 | 62 | 112 | 0.0 | 0.0 | 0.00 | 0.00 | 0.00 | 45 | 1004.1 |
| 20260505023446 | 62 | 112 | 0.0 | 0.0 | 0.00 | 0.00 | 0.00 | 45 | 1004.0 |
| 20260505022946 | 62 | 112 | 0.0 | 0.0 | 0.00 | 0.00 | 0.00 | 45 | 1003.9 |
| 20260505022446 | 62 | 112 | 0.0 | 0.0 | 0.00 | 0.00 | 0.00 | 45 | 1003.8 |
| 20260505021946 | 62 | 112 | 0.0 | 0.0 | 0.00 | 0.00 | 0.00 | 45 | 1004.0 |
| 20260505021446 | 62 | 112 | 0.0 | 0.0 | 0.00 | 0.00 | 0.00 | 45 | 1004.1 |
| 20260505020946 | 62 | 90 | 0.0 | 0.0 | 0.00 | 0.00 | 0.00 | 44 | 1003.9 |
| 20260505020446 | 63 | 90 | 0.0 | 0.0 | 0.00 | 0.00 | 0.00 | 44 | 1003.4 |
| 20260505015946 | 63 | 90 | 0.0 | 0.0 | 0.00 | 0.00 | 0.00 | 44 | 1003.9 |
| 20260505015446 | 63 | 90 | 0.0 | 0.0 | 0.00 | 0.00 | 0.00 | 44 | 1004.1 |
| 20260505014946 | 63 | 90 | 0.0 | 0.0 | 0.00 | 0.00 | 0.00 | 44 | 1004.1 |
| 20260505014446 | 63 | 22 | 0.0 | 0.0 | 0.00 | 0.00 | 0.00 | 44 | 1004.2 |
| 20260505013946 | 63 | 22 | 0.0 | 0.0 | 0.00 | 0.00 | 0.00 | 44 | 1003.9 |
| 20260505013446 | 64 | 90 | 0.0 | 0.0 | 0.00 | 0.00 | 0.00 | 45 | 1003.9 |
| 20260505012946 | 64 | 90 | 0.0 | 0.0 | 0.00 | 0.00 | 0.00 | 45 | 1004.4 |
| 20260505012446 | 64 | 22 | 0.0 | 0.0 | 0.00 | 0.00 | 0.00 | 45 | 1004.6 |
| 20260505011946 | 64 | 22 | 0.0 | 0.0 | 0.00 | 0.00 | 0.00 | 45 | 1004.6 |
| 20260505011446 | 64 | 22 | 0.0 | 0.0 | 0.00 | 0.00 | 0.00 | 45 | 1004.5 |
| 20260505010946 | 64 | 22 | 0.0 | 0.0 | 0.00 | 0.00 | 0.00 | 45 | 1004.3 |
| 20260505010446 | 64 | 90 | 0.0 | 0.0 | 0.00 | 0.00 | 0.00 | 45 | 1003.9 |
| 20260505005946 | 64 | 22 | 0.0 | 0.0 | 0.00 | 0.00 | 0.00 | 45 | 1004.2 |
| 20260505005446 | 64 | 22 | 0.0 | 0.0 | 0.00 | 0.00 | 0.00 | 45 | 1004.5 |
| 20260505004946 | 64 | 22 | 0.0 | 0.0 | 0.00 | 0.00 | 0.00 | 44 | 1004.5 |
| 20260505004446 | 64 | 90 | 0.0 | 0.0 | 0.00 | 0.00 | 0.00 | 44 | 1004.7 |
| 20260505003946 | 64 | 90 | 0.0 | 0.0 | 0.00 | 0.00 | 0.00 | 44 | 1004.8 |
| 20260505003446 | 64 | 90 | 0.0 | 0.0 | 0.00 | 0.00 | 0.00 | 44 | 1004.6 |
| 20260505002946 | 64 | 22 | 0.0 | 0.0 | 0.00 | 0.00 | 0.00 | 44 | 1004.7 |
| 20260505002446 | 64 | 22 | 0.0 | 0.0 | 0.00 | 0.00 | 0.00 | 44 | 1004.7 |
| 20260505001946 | 65 | 22 | 0.0 | 0.0 | 0.00 | 0.00 | 0.00 | 44 | 1004.7 |
| 20260505001446 | 65 | 22 | 0.0 | 0.0 | 0.00 | 0.00 | 0.00 | 43 | 1005.0 |
| 20260505000946 | 65 | 22 | 0.0 | 0.0 | 0.00 | 0.00 | 0.00 | 43 | 1004.8 |
| 20260505000446 | 65 | 90 | 0.0 | 0.0 | 0.00 | 0.00 | 0.00 | 43 | 1004.6 |
| 20260504235946 | 65 | 22 | 0.0 | 0.0 | 0.00 | 0.00 | 0.00 | 43 | 1005.0 |
| 20260504235446 | 65 | 22 | 0.0 | 0.0 | 0.00 | 0.00 | 0.00 | 43 | 1004.9 |
| 20260504234946 | 65 | 22 | 0.0 | 0.0 | 0.00 | 0.00 | 0.00 | 43 | 1005.1 |
| 20260504234446 | 66 | 90 | 0.0 | 0.0 | 0.00 | 0.00 | 0.00 | 43 | 1005.1 |
| 20260504233946 | 66 | 90 | 0.0 | 0.0 | 0.00 | 0.00 | 0.00 | 43 | 1005.4 |
| 20260504233446 | 66 | 90 | 0.0 | 0.0 | 0.00 | 0.00 | 0.00 | 43 | 1005.1 |
| 20260504232946 | 66 | 112 | 0.0 | 0.0 | 0.00 | 0.00 | 0.00 | 43 | 1005.2 |
| 20260504232446 | 66 | 22 | 0.0 | 0.0 | 0.00 | 0.00 | 0.00 | 42 | 1005.3 |
| 20260504231946 | 66 | 112 | 0.0 | 0.0 | 0.00 | 0.00 | 0.00 | 42 | 1005.7 |
| 20260504231446 | 66 | 112 | 0.0 | 0.0 | 0.00 | 0.00 | 0.00 | 42 | 1005.5 |
| 20260504230946 | 66 | 180 | 0.0 | 0.0 | 0.00 | 0.00 | 0.00 | 42 | 1005.6 |
| 20260504230446 | 67 | 180 | 0.0 | 0.0 | 0.00 | 0.00 | 0.00 | 42 | 1005.5 |
| 20260504225946 | 67 | 180 | 0.0 | 0.0 | 0.00 | 0.00 | 0.00 | 42 | 1005.9 |
| 20260504225446 | 67 | 180 | 0.0 | 0.0 | 0.00 | 0.00 | 0.00 | 42 | 1005.9 |
| 20260504224946 | 67 | 180 | 0.0 | 0.0 | 0.00 | 0.00 | 0.00 | 42 | 1005.7 |
| 20260504224446 | 67 | 180 | 0.0 | 0.0 | 0.00 | 0.00 | 0.00 | 42 | 1005.7 |